Location: Aydie
(43.5695°N, 0.1043°W)
Time: 06:01:27
(UTC+00:00)

CBERS-1 - Pass Details

Date: 17 November 2025
Orbit: 765 x 772 km, 98.8° (Epoch: 04 December)

Event Time Altitude Azimuth Distance (km) Brightness Sun altitude
Rises 17:01:18 0° 169° (SSE) 3,229 7.4 -5.5°
Reaches altitude 10° 17:03:36 10° 170° (S) 2,307 6.6 -5.8°
Maximum altitude 17:08:41 76° 257° (WSW) 800 4.3 -6.7°
Drops below altitude 10° 17:13:49 10° 343° (NNW) 2,326 6.5 -7.6°
Sets 17:16:09 0° 345° (NNW) 3,258 7.2 -8.0°
